Location: Shepherdstown, WV
(39.4326°N, 77.8042°W)
Time: 05:37:30
(UTC-04:00)

Vanguard 3 - Pass Details

Date: 06 August 2021
Orbit: 510 x 3260 km, 33.3° (Epoch: 21 September)

Event Time Altitude Azimuth Distance (km) Brightness Sun altitude
Rises 20:39:57 0° 271° (W) 5,660 12.9 -4.7°
Reaches altitude 10° 20:43:10 10° 269° (W) 4,955 12.3 -5.3°
Maximum altitude 20:58:43 67° 191° (SSW) 3,253 10.1 -8.0°
Enters shadow 21:17:41 12° 115° (ESE) 5,936 10.9 -11.1°
Drops below altitude 10° 21:18:28 10° 115° (ESE) 6,089 - -11.3°
Sets 21:22:57 0° 113° (ESE) 6,958 - -12.0°
